Regional Weather Roundup
Issued by NWS Sterling, VA

Home | Current Version | Previous Version | Text Only | Print | Product List | Glossary On
Versions: 1 2 3 4 5 6 7 8 9 10 11 12 13 14 15 16 17 18 19 20 21 22 23 24 25 26 27 28
000
ASUS41 KLWX 010111
RWRLWX

REGIONAL WEATHER ROUNDUP
NATIONAL WEATHER SERVICE BALTIMORE MD/WASHINGTON DC
900 PM EDT SUN APR 30 2017

Note: "FAIR" indicates few or no clouds below 12,000 feet
with no significant weather and/or obstructions to visibility.
 TC=TEMPERATURE CELSIUS

 * =Non NWS site. Station does not report precipitation (e.g. rain,
    snow, etc.), thunder, or fog.

DCZ001-MDZ009-015-VAZ040>042-051-053>054-010200-
WASHINGTON METRO

CITY           SKY/WX    TMP DP  RH WIND       PRES   REMARKS
WASHINGTON NAT PTCLDY    78  67  68 S8        30.00S
DULLES         PTCLDY    79  61  53 S9        29.99F
ANDREWS AFB    CLOUDY    74  63  67 SE8       30.01S
FT BELVOIR     CLEAR     77  64  65 SE6       30.00S
QUANTICO       CLEAR     76  68  76 SW8       30.01S
COLLEGE PARK*  CLOUDY    74  65  73 NE5       30.02S
LEESBURG*      CLEAR     81  64  57 S12       30.00S
MANASSAS*        N/A     77  63  61 S9        30.00F

$$

MDZ006>007-011-014-010200-
BALTIMORE METRO

CITY           SKY/WX    TMP DP  RH WIND       PRES   REMARKS
BWI AIRPORT    CLOUDY    67  63  87 E12       30.04S
MD SCIENCE CTR   N/A     69  59  70 MISG      30.06R
MARTIN STATE   CLEAR     68  63  83 NE8G17    30.08R
ANNAPOLIS      CLEAR     68  65  90 NE14      30.03R
FORT MEADE*    CLOUDY    66  61  82 E12G18    30.06S

$$

MDZ012-015-019>023-010200-
MARYLAND EASTERN SHORE

CITY           SKY/WX    TMP DP  RH WIND       PRES   REMARKS
OCEAN CITY     CLEAR     69  65  86 SW6       30.09S
SALISBURY      PTCLDY    74  66  76 S6        30.06R
BAY BRIDGE AP* CLEAR     64  61  88 E13G21    30.04S
EASTON*        CLEAR     66  63  88 E9        30.10R

$$

MDZ017>025-010200-
SOUTHERN MARYLAND

CITY           SKY/WX    TMP DP  RH WIND       PRES   REMARKS
PATUXENT RIVER CLEAR     78  67  68 S7        30.03S
ST INIGOES     CLEAR     78  64  61 S6        30.03S
LEONARDTOWN*   CLEAR     77  63  61 S5        30.05S

$$

MDZ003>005-010200-
NORTH CENTRAL MARYLAND

CITY           SKY/WX    TMP DP  RH WIND       PRES   REMARKS
FREDERICK*     NOT AVBL
HAGERSTOWN APT CLOUDY    75  66  73 E8        29.98S
WESTMINSTER*   CLEAR     70  63  78 SE10      30.03F

$$

MDZ501>502-010200-
WESTERN MARYLAND

CITY           SKY/WX    TMP DP  RH WIND       PRES   REMARKS
OAKLAND*       CLOUDY    64  61  88 SE7       30.04S
CUMBERLAND*    PTCLDY    73  66  78 CALM      29.99S

$$

VAZ025>031-010200-
SHENANDOAH VALLEY

CITY           SKY/WX    TMP DP  RH WIND       PRES   REMARKS
WINCHESTER*    CLEAR     73  59  60 S6        29.97S
FRONT ROYAL*   CLEAR     77  61  57 SW3       29.97R
LURAY*         CLEAR     73  61  64 S5        30.00S
NEW MARKET*    CLEAR     76  58  53 SW6       29.98S
STAUNTON*      CLEAR     74  60  60 S9        30.05S
WAYNESBORO*    CLEAR     74  62  67 S5        30.05S

$$

WVZ021-048>050-054>055-010200-
EASTERN WEST VIRGINIA PANHANDLE

CITY           SKY/WX    TMP DP  RH WIND       PRES   REMARKS
MARTINSBURG    CLEAR     72  66  81 SE3       29.96S
PETERSBURG*    CLEAR     79  60  51 S8        29.97R

$$

VAZ036>039-050-010200-
CENTRAL FOOTHILLS

CITY           SKY/WX    TMP DP  RH WIND       PRES   REMARKS
CHARLOTTESVILL CLEAR     78  62  57 S10       30.02S
CULPEPER*      CLEAR     79  63  58 S7        30.01S
ORANGE*        CLEAR     75  61  60 SW6       30.01S
GORDONSVILLE*  CLEAR     76  64  65 S7        30.02R
WARRENTON*     CLEAR     79  59  50 S5        30.00S

$$

VAZ055>057-010200-
NORTH AND CENTRAL PIEDMONT

CITY           SKY/WX    TMP DP  RH WIND       PRES   REMARKS
FREDERICKSBRG* CLEAR     78  65  62 S8        30.01S
STAFFORD*      CLEAR     77  63  60 S7        30.05S

$$

NCZ024-NYZ072-PAZ021-071-VAZ022-071-010200-
OTHER REGIONAL OBSERVATIONS

CITY           SKY/WX    TMP DP  RH WIND       PRES   REMARKS
NEW YORK CITY  CLOUDY    54  39  57 VRB3      30.21S
PHILADELPHIA   CLOUDY    54  48  80 E13       30.16R
PITTSBURGH     MOCLDY    75  64  68 SE3       29.88F
ROANOKE        PTCLDY    75  62  64 S13       30.06S
RICHMOND       MOCLDY    76  66  71 S8        30.05S
RALEIGH        MOCLDY    72  68  87 S6        30.10S

$$

ANZ530>537-010200-
MARINE OBSERVATIONS

STATION/POSITION TIME  TEMP    WIND        PRES
                       AIR SEA DIR/SP/G
                 (UTC) (F)     (DEG/KT/KT) (MB)
THOMAS PT LIGHT  0000   71 61  180/ 12/ 13   N/A
BALT KEY BRIDGE  0030   66      70/ 14/ 18 1017.4R
COVE POINT       0030   78     200/  9/ 11 1017.5R
LEWISETTA        0030   79 75  210/ 10/ 12 1016.9R
SOLOMONS ISLAND  0030   78 63  200/ 10/ 12   N/A
PINEY POINT      0030          200/  6/  7   N/A

$$





USA.gov is the U.S. government's official web portal to all federal, state and local government web resources and services.